This is the latest recevied weather packets stored in our database for station/object KI4FRU. If no packets are shown the sender has not sent any weather packets the latest 10 day(s).
| Time | Temp. | Humidity | Pressure | Rain* | Wind** | Luminosity | Snow |
|---|---|---|---|---|---|---|---|
| 1777942033 | 18.89° C | 62% | 1053.1 hPa | 0 mm | - | 0 W/m² | - |
| 1777941730 | 19.44° C | 62% | 1053 hPa | 0 mm | - | 0 W/m² | - |
| 1777941427 | 20° C | 57% | 1053.1 hPa | 0 mm | - | 0 W/m² | - |
| 1777941125 | 20° C | 56% | 1052.9 hPa | 0 mm | - | 0 W/m² | - |
| 1777940821 | 20.56° C | 55% | 1052.9 hPa | 0 mm | - | 0 W/m² | - |
| 1777940519 | 20.56° C | 55% | 1052.6 hPa | 0 mm | - | 1 W/m² | - |
| 1777940216 | 21.11° C | 53% | 1052.7 hPa | 0 mm | - | 2 W/m² | - |
| 1777939913 | 21.67° C | 53% | 1053 hPa | 0 mm | - | 3 W/m² | - |
| 1777939610 | 21.67° C | 52% | 1052.6 hPa | 0 mm | - | 4 W/m² | - |
| 1777939308 | 22.22° C | 51% | 1052.7 hPa | 0 mm | - | 7 W/m² | - |
| 1777939004 | 22.22° C | 51% | 1052.7 hPa | 0 mm | - | 8 W/m² | - |
| 1777938700 | 22.22° C | 51% | 1052.5 hPa | 0 mm | - | 9 W/m² | - |
| 1777938398 | 22.78° C | 51% | 1052.6 hPa | 0 mm | - | 12 W/m² | - |
| 1777938095 | 22.78° C | 50% | 1052.5 hPa | 0 mm | - | 13 W/m² | - |
| 1777937791 | 22.78° C | 50% | 1052.6 hPa | 0 mm | - | 14 W/m² | - |
| 1777937487 | 22.78° C | 50% | 1052.6 hPa | 0 mm | - | 16 W/m² | - |
| 1777937185 | 22.78° C | 50% | 1052.6 hPa | 0 mm | - | 19 W/m² | - |
| 1777936882 | 23.33° C | 48% | 1052.5 hPa | 0 mm | - | 22 W/m² | - |
| 1777936578 | 23.33° C | 48% | 1052.4 hPa | 0 mm | - | 25 W/m² | - |
| 1777936274 | 23.33° C | 50% | 1052.3 hPa | 0 mm | - | 21 W/m² | - |
| 1777935970 | 23.33° C | 49% | 1052.4 hPa | 0 mm | - | 21 W/m² | - |
| 1777935670 | 23.89° C | 52% | 1052.5 hPa | 0 mm | - | 24 W/m² | - |
| 1777935367 | 23.89° C | 47% | 1052.3 hPa | 0 mm | - | 34 W/m² | - |
| 1777935063 | 23.89° C | 47% | 1052.2 hPa | 0 mm | - | 23 W/m² | - |
| 1777934760 | 23.89° C | 48% | 1052.3 hPa | 0 mm | - | 26 W/m² | - |
* Rain latest hour (hover to see other rain measurements)
** Current wind speed in m/s (hover to see current wind gust speed)